Theta_e
356 357 357 357 356 355 354 356 355 355 355 353 350 350 352 353 355 355 355 356 357 357 359 360 360 361 362 362 362 362 363 363 361 361 362 362 360 357 355 354 353 352
357 356 357 357 357 356 355 355 355 355 355 354 351 350 352 354 355 355 355 356 356 355 357 358 357 359 361 361 362 363 364 364 362 361 362 362 361 359 356 354 354 354
358 357 357 356 356 357 355 354 356 355 355 354 354 353 353 352 353 355 355 355 355 354 356 357 356 358 359 361 362 363 363 365 362 361 363 363 362 361 357 355 354 353
359 357 356 355 353 355 355 353 354 355 354 352 353 354 352 350 353 356 356 354 354 355 356 356 356 357 358 359 361 361 361 363 362 362 364 363 363 362 359 357 355 353
359 357 355 355 353 353 355 354 353 354 353 352 353 353 354 354 354 355 355 354 354 354 355 356 356 356 356 358 359 359 359 359 360 361 362 362 362 361 359 359 358 355
360 358 357 355 354 353 355 354 353 353 351 351 352 352 353 355 354 352 354 354 352 351 351 352 354 353 355 356 357 358 357 357 357 360 360 359 359 360 359 360 360 358
359 359 357 356 355 354 355 355 353 352 351 350 351 352 353 353 354 352 353 353 351 350 350 350 352 353 353 354 356 357 357 356 356 358 360 359 357 358 359 360 360 360
359 359 358 357 355 355 355 355 353 352 352 351 351 352 352 352 352 352 352 352 351 351 352 352 355 356 353 352 355 357 357 355 355 358 359 358 358 358 359 359 360 361
359 359 359 358 356 355 354 353 352 352 352 352 351 350 351 351 349 350 351 353 352 351 354 354 355 356 354 352 355 357 357 355 353 355 357 358 357 358 358 357 358 359
359 358 358 357 356 355 354 353 351 351 351 352 350 348 349 351 349 349 351 354 353 352 354 353 354 355 353 352 354 356 357 355 354 355 356 356 355 355 356 356 356 357
358 358 357 357 356 354 353 353 351 351 351 352 351 348 348 349 351 349 351 353 353 351 351 350 351 353 353 351 351 353 354 354 354 355 356 355 354 354 354 354 356 355
358 357 356 356 356 354 353 353 352 351 351 351 351 349 347 347 349 351 351 351 349 348 349 348 345 349 352 350 349 350 352 353 352 353 355 355 354 353 353 353 354 355
358 357 357 356 356 355 353 353 352 351 351 352 352 350 348 345 347 349 351 352 349 347 348 349 347 348 349 348 347 348 350 353 352 351 352 354 353 352 350 350 351 353
357 357 357 356 356 356 355 353 352 352 351 351 352 352 350 347 345 346 349 351 351 350 348 350 351 352 352 350 349 349 349 350 352 351 350 351 352 352 350 349 348 349
358 357 357 357 356 357 356 355 354 353 353 353 353 353 351 350 348 346 347 350 350 351 350 349 350 352 353 353 351 352 349 348 350 352 351 349 349 350 350 349 348 348
358 358 357 357 357 357 358 356 355 354 354 354 354 353 353 352 351 350 349 349 351 352 353 352 350 350 351 349 348 349 351 350 350 352 353 352 351 351 349 348 348 348
359 359 358 358 358 358 358 358 357 356 355 355 354 354 354 353 353 352 351 350 351 352 353 353 352 351 350 348 345 343 346 350 353 353 354 355 354 353 351 349 348 348
358 359 358 358 358 359 359 359 358 357 356 356 355 354 354 354 353 353 353 351 351 350 352 352 353 353 351 349 347 343 342 346 351 352 354 356 355 354 352 352 350 350
358 359 359 359 359 359 359 360 359 358 358 357 356 356 356 355 355 353 353 353 352 351 351 352 352 353 351 350 348 347 345 344 346 349 352 353 355 355 355 354 354 353
358 359 358 359 359 359 359 359 359 358 358 357 357 356 357 356 355 355 355 354 354 353 353 352 351 352 352 350 349 348 348 346 346 348 350 350 353 355 356 357 356 356
357 358 358 359 359 359 359 358 359 359 358 358 357 357 357 357 356 356 355 355 355 355 354 354 353 352 351 351 350 349 349 348 347 348 349 350 351 354 355 358 358 358
356 356 358 359 359 359 360 359 359 359 359 359 357 355 355 356 357 357 356 356 355 356 355 355 354 353 352 351 351 350 350 349 348 349 350 351 351 353 355 357 358 359
356 356 356 358 358 360 360 359 359 359 359 359 358 357 355 356 357 357 357 357 356 356 357 356 355 354 353 352 351 351 350 350 349 350 352 352 353 354 355 357 359 359
353 356 357 357 358 359 359 360 360 360 360 359 359 358 356 355 356 357 358 358 357 357 357 357 357 356 355 353 353 352 351 350 351 352 353 354 355 355 355 356 358 359
346 350 355 357 358 358 359 359 359 359 360 360 360 359 358 357 356 356 357 358 358 358 357 358 357 357 357 355 355 353 352 351 351 354 355 356 356 356 357 357 358 358
343 347 351 355 357 357 356 357 358 360 360 360 360 360 359 359 358 357 358 358 358 359 359 358 358 358 358 357 356 355 354 351 352 354 356 356 357 358 358 358 358 358
Wind_Speed
20 19 19 18 17 15 14 13 13 13 12 12 12 11 11 10 9 10 9 9 9 9 9 9 9 8 8 7 7 7 6 6 5 5 5 6 6 6 7 7 7 6
21 20 19 18 17 17 16 15 13 13 13 13 12 11 11 11 10 10 10 10 9 10 10 10 9 9 9 8 8 8 7 7 7 6 6 6 5 6 7 7 7 7
22 21 21 20 19 18 18 16 15 14 14 13 14 13 12 11 11 10 10 10 10 10 10 10 10 10 10 10 9 9 8 8 8 7 6 6 6 5 6 7 7 7
23 22 22 22 21 19 18 17 17 16 15 14 14 14 13 12 11 11 11 11 11 10 10 10 10 10 11 11 10 10 9 9 9 8 7 7 6 6 7 6 7 7
24 24 23 22 21 19 18 18 19 18 17 16 15 15 14 13 13 12 11 12 12 11 11 11 10 10 11 11 11 11 10 10 10 10 9 9 8 8 7 7 7 7
24 24 24 22 21 20 19 20 20 19 18 17 16 15 15 15 15 14 13 12 13 12 12 12 11 11 11 11 12 12 11 10 10 10 11 10 10 9 8 8 8 8
24 24 24 23 22 22 21 21 20 20 19 18 17 17 16 16 16 16 15 14 13 13 13 12 12 12 12 11 12 12 12 11 10 10 11 11 11 10 10 9 8 8
24 24 24 24 23 23 22 22 21 21 20 19 18 18 18 17 17 17 17 16 15 14 14 13 13 13 12 12 12 12 12 12 11 11 12 12 11 11 11 11 10 10
23 23 23 24 24 23 23 23 22 21 21 20 20 19 18 19 19 18 17 17 17 16 15 14 14 14 13 13 13 13 13 12 11 11 12 12 12 12 12 12 12 11
23 23 23 24 24 24 24 23 22 21 21 22 22 20 19 20 20 20 19 19 19 18 17 17 16 15 15 14 14 14 13 13 12 12 13 12 12 12 12 12 13 13
23 23 23 24 24 24 24 24 23 22 21 22 23 22 21 20 20 21 20 21 21 20 20 21 19 18 17 16 16 15 15 14 14 14 14 13 13 13 13 13 13 14
23 23 24 24 24 24 24 24 23 23 22 22 22 23 23 21 20 20 21 22 24 23 22 23 23 21 20 19 18 16 16 16 15 15 15 15 15 14 14 14 14 14
24 24 24 24 24 24 23 23 23 23 23 22 22 22 23 23 22 21 21 22 24 25 23 23 24 23 23 23 21 19 18 17 17 17 16 16 16 15 15 15 15 15
24 24 24 23 23 23 23 22 22 23 23 22 21 21 23 23 23 22 21 21 23 24 23 22 22 22 23 24 23 21 20 19 18 18 18 17 17 17 16 16 16 16
23 23 22 23 22 22 23 23 22 22 23 22 21 21 21 22 23 23 22 22 21 22 22 22 22 22 22 23 23 22 22 21 20 20 20 19 19 18 17 17 17 17
21 21 21 21 23 23 23 23 23 22 22 22 22 22 21 21 21 22 22 22 21 21 21 22 22 23 24 26 27 25 22 21 21 21 20 20 20 19 19 18 18 18
20 20 21 21 22 23 23 23 23 22 22 22 22 21 21 20 20 21 22 22 21 21 21 22 22 23 25 29 31 31 27 22 20 20 20 20 20 20 20 19 19 19
20 20 21 22 22 22 22 22 22 22 22 22 22 22 22 21 21 22 23 23 22 22 22 22 22 23 26 29 32 33 32 27 22 19 19 20 20 20 20 19 19 19
20 20 21 22 23 22 21 20 20 22 23 23 23 23 21 22 23 24 24 24 24 24 24 24 23 24 27 30 32 32 32 31 27 22 21 20 20 20 20 20 19 18
19 20 21 21 21 22 21 20 21 22 24 23 23 22 22 23 24 25 25 25 26 26 26 26 25 26 28 31 32 32 31 31 30 26 23 22 21 20 20 20 20 19
20 20 21 21 21 20 21 22 23 23 24 23 22 22 23 24 25 25 25 26 26 26 26 26 26 27 29 32 33 32 31 31 30 28 25 24 23 22 22 21 20 20
19 21 20 20 20 21 21 22 24 24 24 24 23 23 23 23 24 24 25 26 26 25 25 25 26 27 29 32 33 33 31 30 31 29 26 25 24 24 23 23 22 22
14 18 21 21 20 21 23 23 24 25 25 24 23 23 24 24 24 24 24 25 25 25 25 26 26 26 28 30 32 32 31 30 30 27 25 25 25 24 24 23 24 24
15 15 18 21 22 22 23 24 24 24 24 23 24 24 24 25 24 23 23 23 25 25 26 26 26 26 27 30 31 32 32 32 30 25 23 24 24 24 25 24 25 26
16 16 16 17 21 23 24 24 23 23 23 22 23 23 24 24 24 24 24 24 24 25 25 26 26 25 27 30 32 32 33 33 30 24 23 24 23 24 24 25 25 26
14 15 16 17 17 19 22 22 20 21 21 22 22 23 23 23 23 24 25 25 24 24 25 26 26 25 26 29 31 32 34 34 31 26 24 24 23 23 24 24 25 25
Wind_Direction
205 205 206 209 211 212 211 210 210 210 210 209 208 206 203 200 198 197 199 205 208 212 214 212 210 208 202 204 205 206 210 211 212 212 219 232 232 232 232 228 229 237
205 206 207 208 210 210 211 211 211 211 212 212 211 210 206 203 204 204 204 207 209 212 215 215 216 214 209 208 208 207 210 212 214 215 220 232 236 233 232 232 231 232
205 207 208 210 211 211 211 212 213 215 215 214 215 213 211 209 209 209 209 209 209 210 212 214 216 216 215 214 212 213 213 213 217 219 220 228 233 233 229 230 232 229
205 208 211 214 215 214 213 213 214 217 217 216 216 216 215 213 208 207 210 211 210 209 209 212 214 214 217 218 217 220 220 219 222 221 221 226 227 230 232 230 232 231
205 207 211 214 215 215 213 214 214 215 217 217 216 215 214 212 207 206 209 212 212 211 211 212 214 215 217 218 219 223 224 224 224 221 224 230 229 228 231 229 229 231
203 206 209 211 213 213 212 214 215 215 217 217 216 216 214 213 214 212 210 211 212 212 212 213 214 216 217 218 220 223 226 229 225 222 225 230 231 230 230 226 225 229
201 203 206 207 209 211 212 214 215 216 217 216 216 216 215 215 216 216 213 212 213 213 212 213 212 214 216 217 221 223 226 231 229 227 228 230 232 231 231 229 226 228
201 202 203 204 205 208 211 214 216 217 216 215 215 216 216 217 217 217 217 215 216 216 214 213 212 214 217 217 220 222 224 229 230 228 231 232 232 231 230 230 229 230
201 201 202 203 204 207 211 214 216 216 215 214 216 216 216 218 219 218 217 216 217 217 215 215 215 216 219 218 220 222 224 228 230 228 231 233 232 232 231 230 229 230
202 203 203 203 205 208 211 214 215 214 214 214 216 217 216 218 220 219 218 217 218 218 218 220 219 219 221 220 220 223 225 230 231 230 232 235 236 236 235 234 232 231
204 205 206 206 207 210 211 213 214 213 213 214 215 216 216 217 218 217 217 218 221 222 223 226 225 221 221 222 223 225 227 230 233 234 234 236 239 240 238 237 236 235
206 207 209 209 209 212 213 213 214 214 213 213 214 214 216 216 217 216 216 218 224 225 224 228 231 226 224 227 227 227 229 232 234 235 237 239 240 242 241 240 238 238
207 208 211 211 211 213 215 214 215 215 215 214 213 213 215 217 218 218 216 218 225 228 224 225 229 228 228 231 231 228 228 231 234 237 239 241 242 243 243 242 241 239
208 209 210 211 211 212 214 215 216 216 216 215 214 213 215 218 219 220 220 220 224 227 226 224 225 226 226 229 231 229 228 230 234 237 240 242 243 244 244 244 243 241
209 210 210 209 209 210 211 214 215 216 215 215 215 215 217 219 221 221 222 223 224 226 227 225 225 226 224 225 227 227 229 231 233 235 239 240 242 244 245 245 244 243
209 209 210 209 207 208 209 211 213 215 216 216 216 217 219 219 221 222 223 225 225 225 226 225 227 228 228 230 231 229 228 230 232 233 235 237 239 241 244 245 245 244
209 207 208 208 208 208 209 210 212 213 214 216 216 218 219 218 219 222 224 226 227 227 227 227 229 229 230 234 238 237 233 229 230 231 232 233 236 238 241 244 245 244
211 209 208 208 209 210 211 210 211 212 213 216 218 219 218 219 220 222 224 226 227 228 229 229 231 230 231 236 242 243 240 234 230 233 233 233 235 237 238 240 241 241
216 212 211 211 211 212 213 212 212 213 215 218 221 222 220 220 221 222 223 224 225 227 228 230 232 230 231 237 242 245 244 239 233 233 236 236 235 236 236 236 236 237
226 219 216 216 215 213 212 214 215 217 219 221 224 224 222 223 225 224 224 224 223 224 226 229 231 229 230 236 242 243 244 241 235 232 235 237 236 236 236 235 233 232
235 229 222 219 218 214 212 214 217 219 222 224 225 225 224 225 227 227 227 226 226 226 227 229 231 229 228 233 239 241 242 240 236 231 231 234 235 235 235 234 232 230
243 238 231 225 220 216 215 215 217 220 222 223 225 228 229 228 229 230 229 229 229 229 229 233 235 233 231 233 237 240 239 238 235 231 230 231 232 233 233 233 232 230
274 250 239 231 225 221 219 218 218 220 222 222 225 228 230 230 230 231 231 232 232 231 230 234 237 236 234 235 237 237 236 235 233 230 229 231 232 232 233 233 232 230
311 284 257 240 231 228 226 223 222 223 222 221 223 227 230 232 232 233 233 233 233 231 230 233 237 236 234 235 236 236 234 232 230 228 228 230 231 233 234 235 235 233
316 311 297 267 245 237 233 229 226 226 225 223 224 227 230 232 233 235 235 234 234 233 231 232 236 238 236 235 235 235 234 231 226 225 228 229 230 231 232 233 235 236
321 314 310 299 282 264 251 246 240 234 229 226 227 230 232 233 232 233 236 237 236 236 235 233 235 237 238 237 235 235 234 230 223 222 227 229 229 230 231 232 233 233